Time,TemperatureF,DewpointF,PressureIn,WindDirection,WindDirectionDegrees,WindSpeedMPH,WindSpeedGustMPH,Humidity,HourlyPrecipIn,Conditions,Clouds,dailyrainin,SoftwareType,DateUTC
2013-02-15 00:03:00,25.0,21.0,29.66,SE,135,3.0,3.0,90,0.00,,,0.00,TxWx,2013-02-15 05:03:00,
2013-02-15 00:08:00,25.0,22.0,29.66,SSE,157,1.0,1.0,91,0.00,,,0.00,TxWx,2013-02-15 05:08:00,
2013-02-15 00:13:00,25.0,22.0,29.66,SSW,202,1.0,1.0,91,0.00,,,0.00,TxWx,2013-02-15 05:13:00,
2013-02-15 00:18:00,25.0,22.0,29.66,NE,45,2.0,3.0,91,0.00,,,0.00,TxWx,2013-02-15 05:18:00,
2013-02-15 00:24:00,25.0,22.0,29.66,SE,135,1.0,1.0,92,0.00,,,0.00,TxWx,2013-02-15 05:24:00,
2013-02-15 00:29:00,25.0,22.0,29.66,SSW,202,1.0,1.0,92,0.00,,,0.00,TxWx,2013-02-15 05:29:00,
2013-02-15 00:34:00,25.0,22.0,29.66,South,180,1.0,1.0,92,0.00,,,0.00,TxWx,2013-02-15 05:34:00,
2013-02-15 00:39:00,25.0,22.0,29.65,SE,135,1.0,1.0,93,0.00,,,0.00,TxWx,2013-02-15 05:39:00,
2013-02-15 00:44:00,25.0,22.0,29.65,East,90,1.0,2.0,93,0.00,,,0.00,TxWx,2013-02-15 05:44:00,
2013-02-15 00:49:00,25.0,22.0,29.65,SE,135,1.0,1.0,93,0.00,,,0.00,TxWx,2013-02-15 05:49:00,
2013-02-15 00:54:00,25.0,22.0,29.65,ENE,67,3.0,3.0,93,0.00,,,0.00,TxWx,2013-02-15 05:54:00,
2013-02-15 00:59:00,25.0,22.0,29.65,SE,135,1.0,1.0,94,0.00,,,0.00,TxWx,2013-02-15 05:59:00,
2013-02-15 01:04:00,25.0,22.0,29.64,ESE,112,2.0,3.0,94,0.00,,,0.00,TxWx,2013-02-15 06:04:00,
2013-02-15 01:09:00,25.0,22.0,29.64,ESE,112,1.0,1.0,94,0.00,,,0.00,TxWx,2013-02-15 06:09:00,
2013-02-15 01:14:00,25.0,23.0,29.64,East,90,1.0,1.0,94,0.00,,,0.00,TxWx,2013-02-15 06:14:00,
2013-02-15 01:20:00,25.0,23.0,29.64,ESE,112,0.0,1.0,94,0.00,,,0.00,TxWx,2013-02-15 06:20:00,
2013-02-15 01:25:00,25.0,23.0,29.64,SE,135,1.0,1.0,94,0.00,,,0.00,TxWx,2013-02-15 06:25:00,
2013-02-15 01:30:00,25.0,23.0,29.64,ESE,112,1.0,2.0,95,0.00,,,0.00,TxWx,2013-02-15 06:30:00,
2013-02-15 01:35:00,25.0,23.0,29.64,SE,135,2.0,3.0,95,0.00,,,0.00,TxWx,2013-02-15 06:35:00,
2013-02-15 01:40:00,25.0,23.0,29.64,SE,135,1.0,2.0,95,0.00,,,0.00,TxWx,2013-02-15 06:40:00,
2013-02-15 01:45:00,25.0,23.0,29.64,SE,135,1.0,2.0,95,0.00,,,0.00,TxWx,2013-02-15 06:45:00,
2013-02-15 01:50:00,25.0,23.0,29.64,ESE,112,3.0,3.0,95,0.00,,,0.00,TxWx,2013-02-15 06:50:00,
2013-02-15 01:55:00,25.0,23.0,29.64,SSE,157,1.0,1.0,95,0.00,,,0.00,TxWx,2013-02-15 06:55:00,
2013-02-15 02:00:00,25.0,23.0,29.63,SE,135,1.0,2.0,96,0.00,,,0.00,TxWx,2013-02-15 07:00:00,
2013-02-15 02:05:00,25.0,23.0,29.63,SW,225,1.0,2.0,96,0.00,,,0.00,TxWx,2013-02-15 07:05:00,
2013-02-15 02:11:00,25.0,23.0,29.63,ESE,112,3.0,3.0,96,0.00,,,0.00,TxWx,2013-02-15 07:11:00,
2013-02-15 02:16:00,25.0,23.0,29.64,ESE,112,2.0,2.0,96,0.00,,,0.00,TxWx,2013-02-15 07:16:00,
2013-02-15 02:21:00,25.0,23.0,29.64,ENE,67,2.0,3.0,96,0.00,,,0.00,TxWx,2013-02-15 07:21:00,
2013-02-15 02:26:00,25.0,23.0,29.64,SE,135,2.0,3.0,96,0.00,,,0.00,TxWx,2013-02-15 07:26:00,
2013-02-15 02:31:00,26.0,24.0,29.63,East,90,2.0,2.0,96,0.00,,,0.00,TxWx,2013-02-15 07:31:00,
2013-02-15 02:36:00,25.0,24.0,29.63,South,180,1.0,2.0,97,0.00,,,0.00,TxWx,2013-02-15 07:36:00,
2013-02-15 02:41:00,26.0,24.0,29.63,ESE,112,1.0,1.0,97,0.00,,,0.00,TxWx,2013-02-15 07:41:00,
2013-02-15 02:46:00,26.0,24.0,29.63,SSE,157,1.0,1.0,97,0.00,,,0.00,TxWx,2013-02-15 07:46:00,
2013-02-15 02:51:00,26.0,24.0,29.63,SE,135,1.0,2.0,97,0.00,,,0.00,TxWx,2013-02-15 07:51:00,
2013-02-15 02:56:00,26.0,24.0,29.63,East,90,2.0,3.0,97,0.00,,,0.00,TxWx,2013-02-15 07:56:00,
2013-02-15 03:01:00,25.0,23.0,29.63,NNE,22,1.0,2.0,97,0.00,,,0.00,TxWx,2013-02-15 08:01:00,
2013-02-15 03:07:00,26.0,24.0,29.63,NE,45,2.0,3.0,97,0.00,,,0.00,TxWx,2013-02-15 08:07:00,
2013-02-15 03:12:00,26.0,24.0,29.62,ESE,112,2.0,2.0,97,0.00,,,0.00,TxWx,2013-02-15 08:12:00,
2013-02-15 03:17:00,26.0,24.0,29.62,East,90,1.0,2.0,97,0.00,,,0.00,TxWx,2013-02-15 08:17:00,
2013-02-15 03:22:00,26.0,24.0,29.62,ESE,112,1.0,1.0,97,0.00,,,0.00,TxWx,2013-02-15 08:22:00,
2013-02-15 03:27:00,26.0,24.0,29.63,NNE,22,2.0,3.0,97,0.00,,,0.00,TxWx,2013-02-15 08:27:00,
2013-02-15 03:32:00,26.0,24.0,29.62,NNE,22,1.0,2.0,97,0.00,,,0.00,TxWx,2013-02-15 08:32:00,
2013-02-15 03:37:00,26.0,24.0,29.62,South,180,1.0,1.0,97,0.00,,,0.00,TxWx,2013-02-15 08:37:00,
2013-02-15 03:42:00,26.0,24.0,29.62,South,180,3.0,3.0,97,0.00,,,0.00,TxWx,2013-02-15 08:42:00,
2013-02-15 03:47:00,26.0,24.0,29.62,SE,135,4.0,4.0,98,0.00,,,0.00,TxWx,2013-02-15 08:47:00,
2013-02-15 03:52:00,26.0,24.0,29.61,ESE,112,2.0,2.0,98,0.00,,,0.00,TxWx,2013-02-15 08:52:00,
2013-02-15 03:57:00,26.0,24.0,29.61,NNW,337,2.0,3.0,98,0.00,,,0.00,TxWx,2013-02-15 08:57:00,
2013-02-15 04:03:00,26.0,24.0,29.61,NE,45,2.0,2.0,98,0.00,,,0.00,TxWx,2013-02-15 09:03:00,
2013-02-15 04:08:00,26.0,24.0,29.62,ESE,112,2.0,2.0,98,0.00,,,0.00,TxWx,2013-02-15 09:08:00,
2013-02-15 04:13:00,26.0,24.0,29.62,ENE,67,2.0,3.0,98,0.00,,,0.00,TxWx,2013-02-15 09:13:00,
2013-02-15 04:15:00,33.0,23.0,29.67,South,180,12.0,12.0,69,0.00,,,0.00,TxWx,2013-02-15 09:15:00,
2013-02-15 04:16:00,33.0,23.0,29.67,WSW,247,17.0,17.0,69,0.00,,,0.00,TxWx,2013-02-15 09:16:00,
2013-02-15 04:17:00,33.0,23.0,29.67,SW,225,7.0,8.0,69,0.00,,,0.00,TxWx,2013-02-15 09:17:00,
2013-02-15 04:18:00,26.0,25.0,29.62,ENE,67,1.0,3.0,98,0.00,,,0.00,TxWx,2013-02-15 09:18:00,
2013-02-15 04:19:00,33.0,23.0,29.67,SSW,202,11.0,11.0,69,0.00,,,0.00,TxWx,2013-02-15 09:19:00,
2013-02-15 04:20:00,33.0,23.0,29.67,NW,315,6.0,8.0,69,0.00,,,0.00,TxWx,2013-02-15 09:20:00,
2013-02-15 04:21:00,33.0,23.0,29.68,SSW,202,9.0,10.0,69,0.00,,,0.00,TxWx,2013-02-15 09:21:00,
2013-02-15 04:22:00,32.0,22.0,29.67,WSW,247,6.0,11.0,69,0.00,,,0.00,TxWx,2013-02-15 09:22:00,
2013-02-15 04:23:00,26.0,25.0,29.62,SE,135,2.0,2.0,98,0.00,,,0.00,TxWx,2013-02-15 09:23:00,
2013-02-15 04:24:00,32.0,22.0,29.68,West,270,6.0,9.0,70,0.00,,,0.00,TxWx,2013-02-15 09:24:00,
2013-02-15 04:26:00,32.0,22.0,29.67,WNW,292,5.0,5.0,69,0.00,,,0.00,TxWx,2013-02-15 09:26:00,
2013-02-15 04:27:00,32.0,22.0,29.68,WSW,247,3.0,6.0,69,0.00,,,0.00,TxWx,2013-02-15 09:27:00,
2013-02-15 04:28:00,26.0,25.0,29.61,ESE,112,3.0,4.0,98,0.00,,,0.00,TxWx,2013-02-15 09:28:00,
2013-02-15 04:29:00,32.0,22.0,29.68,ESE,112,3.0,5.0,70,0.00,,,0.00,TxWx,2013-02-15 09:29:00,
2013-02-15 04:30:00,32.0,22.0,29.67,West,270,8.0,8.0,70,0.00,,,0.00,TxWx,2013-02-15 09:30:00,
2013-02-15 04:31:00,32.0,22.0,29.68,SW,225,8.0,11.0,70,0.00,,,0.00,TxWx,2013-02-15 09:31:00,
2013-02-15 04:32:00,32.0,22.0,29.68,SW,225,10.0,10.0,70,0.00,,,0.00,TxWx,2013-02-15 09:32:00,
2013-02-15 04:33:00,26.0,25.0,29.61,East,90,3.0,4.0,98,0.00,,,0.00,TxWx,2013-02-15 09:33:00,
2013-02-15 04:34:00,32.0,22.0,29.68,West,270,8.0,14.0,70,0.00,,,0.00,TxWx,2013-02-15 09:34:00,
2013-02-15 04:35:00,32.0,22.0,29.68,West,270,10.0,10.0,70,0.00,,,0.00,TxWx,2013-02-15 09:35:00,
2013-02-15 04:36:00,32.0,22.0,29.68,SSE,157,3.0,8.0,70,0.00,,,0.00,TxWx,2013-02-15 09:36:00,
2013-02-15 04:37:00,32.0,22.0,29.68,West,270,10.0,11.0,70,0.00,,,0.00,TxWx,2013-02-15 09:37:00,
2013-02-15 04:38:00,26.0,25.0,29.61,NNE,22,4.0,4.0,98,0.00,,,0.00,TxWx,2013-02-15 09:38:00,
2013-02-15 04:40:00,32.0,22.0,29.68,WNW,292,6.0,7.0,70,0.00,,,0.00,TxWx,2013-02-15 09:40:00,
2013-02-15 04:42:00,32.0,22.0,29.68,SW,225,4.0,6.0,70,0.00,,,0.00,TxWx,2013-02-15 09:42:00,
2013-02-15 04:43:00,26.0,25.0,29.61,SE,135,3.0,3.0,98,0.00,,,0.00,TxWx,2013-02-15 09:43:00,
2013-02-15 04:44:00,32.0,22.0,29.68,West,270,9.0,10.0,70,0.00,,,0.00,TxWx,2013-02-15 09:44:00,
2013-02-15 04:46:00,32.0,22.0,29.68,SW,225,6.0,6.0,69,0.00,,,0.00,TxWx,2013-02-15 09:46:00,
2013-02-15 04:48:00,26.0,25.0,29.61,SE,135,3.0,3.0,98,0.00,,,0.00,TxWx,2013-02-15 09:48:00,
2013-02-15 04:49:00,32.0,22.0,29.68,South,180,8.0,8.0,70,0.00,,,0.00,TxWx,2013-02-15 09:49:00,
2013-02-15 04:50:00,32.0,22.0,29.68,SW,225,3.0,5.0,70,0.00,,,0.00,TxWx,2013-02-15 09:50:00,
2013-02-15 04:52:00,32.0,22.0,29.68,WSW,247,6.0,10.0,70,0.00,,,0.00,TxWx,2013-02-15 09:52:00,
2013-02-15 04:53:00,26.0,25.0,29.61,SE,135,1.0,2.0,98,0.00,,,0.00,TxWx,2013-02-15 09:53:00,
2013-02-15 04:54:00,32.0,22.0,29.68,SW,225,6.0,8.0,70,0.00,,,0.00,TxWx,2013-02-15 09:54:00,
2013-02-15 04:55:00,32.0,22.0,29.68,West,270,4.0,7.0,70,0.00,,,0.00,TxWx,2013-02-15 09:55:00,
2013-02-15 04:59:00,26.0,25.0,29.61,ENE,67,1.0,2.0,99,0.00,,,0.00,TxWx,2013-02-15 09:59:00,
2013-02-15 05:04:00,26.0,25.0,29.61,South,180,1.0,1.0,99,0.00,,,0.00,TxWx,2013-02-15 10:04:00,
2013-02-15 05:09:00,26.0,25.0,29.61,ESE,112,1.0,2.0,99,0.00,,,0.00,TxWx,2013-02-15 10:09:00,
2013-02-15 05:14:00,26.0,25.0,29.61,South,180,0.0,1.0,99,0.00,,,0.00,TxWx,2013-02-15 10:14:00,
2013-02-15 05:19:00,27.0,26.0,29.61,SW,225,1.0,1.0,99,0.00,,,0.00,TxWx,2013-02-15 10:19:00,
2013-02-15 05:24:00,27.0,26.0,29.61,South,180,0.0,1.0,99,0.00,,,0.00,TxWx,2013-02-15 10:24:00,
2013-02-15 05:29:00,26.0,25.0,29.61,ESE,112,0.0,1.0,99,0.00,,,0.00,TxWx,2013-02-15 10:29:00,
2013-02-15 05:34:00,27.0,26.0,29.61,WSW,247,1.0,1.0,99,0.00,,,0.00,TxWx,2013-02-15 10:34:00,
2013-02-15 05:39:00,27.0,26.0,29.61,SE,135,1.0,1.0,99,0.00,,,0.00,TxWx,2013-02-15 10:39:00,
2013-02-15 05:44:00,27.0,26.0,29.61,East,90,2.0,3.0,99,0.00,,,0.00,TxWx,2013-02-15 10:44:00,
2013-02-15 05:50:00,27.0,26.0,29.61,SSE,157,1.0,1.0,99,0.00,,,0.00,TxWx,2013-02-15 10:50:00,
2013-02-15 05:55:00,27.0,26.0,29.61,ESE,112,1.0,2.0,99,0.00,,,0.00,TxWx,2013-02-15 10:55:00,
2013-02-15 06:00:00,27.0,26.0,29.61,SSE,157,1.0,1.0,99,0.00,,,0.00,TxWx,2013-02-15 11:00:00,
2013-02-15 06:05:00,27.0,26.0,29.61,South,180,1.0,1.0,99,0.00,,,0.00,TxWx,2013-02-15 11:05:00,
2013-02-15 06:10:00,27.0,26.0,29.61,ENE,67,1.0,2.0,99,0.00,,,0.00,TxWx,2013-02-15 11:10:00,
2013-02-15 06:15:00,27.0,26.0,29.61,South,180,1.0,1.0,99,0.00,,,0.00,TxWx,2013-02-15 11:15:00,
2013-02-15 06:20:00,27.0,26.0,29.61,SSE,157,1.0,2.0,99,0.00,,,0.00,TxWx,2013-02-15 11:20:00,
2013-02-15 06:25:00,27.0,26.0,29.61,ENE,67,2.0,2.0,99,0.00,,,0.00,TxWx,2013-02-15 11:25:00,
2013-02-15 06:30:00,27.0,26.0,29.61,East,90,1.0,1.0,99,0.00,,,0.00,TxWx,2013-02-15 11:30:00,
2013-02-15 06:35:00,28.0,28.0,29.61,SE,135,3.0,3.0,100,0.00,,,0.00,TxWx,2013-02-15 11:35:00,
2013-02-15 06:37:00,30.0,22.0,29.71,West,270,6.0,6.0,75,0.00,,,0.00,TxWx,2013-02-15 11:37:00,
2013-02-15 06:38:00,30.0,22.0,29.71,SW,225,6.0,6.0,75,0.00,,,0.00,TxWx,2013-02-15 11:38:00,
2013-02-15 06:39:00,30.0,22.0,29.71,West,270,5.0,5.0,76,0.00,,,0.00,TxWx,2013-02-15 11:39:00,
2013-02-15 06:40:00,28.0,28.0,29.61,NNW,337,2.0,2.0,100,0.00,,,0.00,TxWx,2013-02-15 11:40:00,
2013-02-15 06:46:00,28.0,28.0,29.61,West,270,3.0,3.0,100,0.00,,,0.00,TxWx,2013-02-15 11:46:00,
2013-02-15 06:51:00,29.0,28.0,29.61,WSW,247,2.0,3.0,99,0.00,,,0.00,TxWx,2013-02-15 11:51:00,
2013-02-15 06:56:00,29.0,28.0,29.61,SSW,202,0.0,0.0,99,0.00,,,0.00,TxWx,2013-02-15 11:56:00,
2013-02-15 07:01:00,29.0,29.0,29.61,WSW,247,3.0,3.0,100,0.00,,,0.00,TxWx,2013-02-15 12:01:00,
2013-02-15 07:06:00,29.0,28.0,29.61,SW,225,1.0,2.0,99,0.00,,,0.00,TxWx,2013-02-15 12:06:00,
2013-02-15 07:11:00,29.0,28.0,29.62,West,270,3.0,3.0,99,0.00,,,0.00,TxWx,2013-02-15 12:11:00,
2013-02-15 07:16:00,29.0,28.0,29.62,SW,225,1.0,2.0,99,0.00,,,0.00,TxWx,2013-02-15 12:16:00,
2013-02-15 07:21:00,29.0,28.0,29.62,West,270,2.0,3.0,99,0.00,,,0.00,TxWx,2013-02-15 12:21:00,
2013-02-15 07:26:00,30.0,29.0,29.62,WSW,247,1.0,1.0,99,0.00,,,0.00,TxWx,2013-02-15 12:26:00,
2013-02-15 07:31:00,30.0,29.0,29.62,South,180,1.0,1.0,99,0.00,,,0.00,TxWx,2013-02-15 12:31:00,
2013-02-15 07:37:00,30.0,29.0,29.63,West,270,4.0,4.0,99,0.00,,,0.00,TxWx,2013-02-15 12:37:00,
2013-02-15 07:42:00,30.0,29.0,29.63,WSW,247,3.0,3.0,99,0.00,,,0.00,TxWx,2013-02-15 12:42:00,
2013-02-15 07:47:00,30.0,29.0,29.63,South,180,1.0,2.0,99,0.00,,,0.00,TxWx,2013-02-15 12:47:00,
2013-02-15 07:52:00,30.0,29.0,29.63,SW,225,2.0,3.0,99,0.00,,,0.00,TxWx,2013-02-15 12:52:00,
2013-02-15 07:57:00,30.0,29.0,29.63,SW,225,1.0,1.0,99,0.00,,,0.00,TxWx,2013-02-15 12:57:00,
2013-02-15 08:01:00,29.0,24.0,29.73,West,270,4.0,7.0,84,0.00,,,0.00,TxWx,2013-02-15 13:01:00,
2013-02-15 08:02:00,30.0,29.0,29.63,SSW,202,2.0,3.0,99,0.00,,,0.00,TxWx,2013-02-15 13:02:00,
2013-02-15 08:07:00,30.0,29.0,29.63,WSW,247,3.0,3.0,99,0.00,,,0.00,TxWx,2013-02-15 13:07:00,
2013-02-15 08:12:00,31.0,30.0,29.64,West,270,3.0,3.0,98,0.00,,,0.00,TxWx,2013-02-15 13:12:00,
2013-02-15 08:17:00,31.0,29.0,29.64,SW,225,3.0,4.0,98,0.00,,,0.00,TxWx,2013-02-15 13:17:00,
2013-02-15 08:22:00,31.0,29.0,29.64,WSW,247,4.0,5.0,97,0.00,,,0.00,TxWx,2013-02-15 13:22:00,
2013-02-15 08:27:00,31.0,29.0,29.64,West,270,3.0,3.0,97,0.00,,,0.00,TxWx,2013-02-15 13:27:00,
2013-02-15 08:33:00,31.0,29.0,29.64,West,270,3.0,3.0,97,0.00,,,0.00,TxWx,2013-02-15 13:33:00,
2013-02-15 08:38:00,31.0,29.0,29.64,WSW,247,3.0,4.0,96,0.00,,,0.00,TxWx,2013-02-15 13:38:00,
2013-02-15 08:43:00,31.0,29.0,29.64,South,180,1.0,2.0,96,0.00,,,0.00,TxWx,2013-02-15 13:43:00,
2013-02-15 08:48:00,31.0,29.0,29.64,SW,225,3.0,5.0,95,0.00,,,0.00,TxWx,2013-02-15 13:48:00,
2013-02-15 08:53:00,31.0,29.0,29.64,NNW,337,4.0,7.0,95,0.00,,,0.00,TxWx,2013-02-15 13:53:00,
2013-02-15 08:58:00,31.0,28.0,29.64,SW,225,5.0,6.0,94,0.00,,,0.00,TxWx,2013-02-15 13:58:00,
2013-02-15 09:03:00,31.0,28.0,29.64,WSW,247,2.0,3.0,94,0.00,,,0.00,TxWx,2013-02-15 14:03:00,
2013-02-15 09:08:00,31.0,28.0,29.64,SW,225,6.0,8.0,94,0.00,,,0.00,TxWx,2013-02-15 14:08:00,
2013-02-15 09:13:00,31.0,28.0,29.64,SW,225,4.0,4.0,93,0.00,,,0.00,TxWx,2013-02-15 14:13:00,
2013-02-15 09:18:00,31.0,28.0,29.65,SW,225,8.0,9.0,93,0.00,,,0.00,TxWx,2013-02-15 14:18:00,
2013-02-15 09:23:00,31.0,28.0,29.65,WSW,247,2.0,3.0,93,0.00,,,0.00,TxWx,2013-02-15 14:23:00,
2013-02-15 09:29:00,31.0,28.0,29.65,SW,225,3.0,4.0,93,0.00,,,0.00,TxWx,2013-02-15 14:29:00,
2013-02-15 09:34:00,31.0,28.0,29.65,SW,225,3.0,5.0,94,0.00,,,0.00,TxWx,2013-02-15 14:34:00,
2013-02-15 09:39:00,31.0,29.0,29.65,SW,225,5.0,5.0,95,0.00,,,0.00,TxWx,2013-02-15 14:39:00,
2013-02-15 09:44:00,32.0,30.0,29.65,SSE,157,3.0,5.0,95,0.00,,,0.00,TxWx,2013-02-15 14:44:00,
2013-02-15 09:49:00,32.0,30.0,29.65,WSW,247,6.0,7.0,95,0.00,,,0.00,TxWx,2013-02-15 14:49:00,
2013-02-15 09:54:00,32.0,29.0,29.65,SSW,202,4.0,5.0,94,0.00,,,0.00,TxWx,2013-02-15 14:54:00,
2013-02-15 09:59:00,33.0,30.0,29.65,West,270,6.0,8.0,93,0.00,,,0.00,TxWx,2013-02-15 14:59:00,
2013-02-15 10:04:00,33.0,30.0,29.65,WSW,247,5.0,6.0,92,0.00,,,0.00,TxWx,2013-02-15 15:04:00,
2013-02-15 10:09:00,32.0,29.0,29.65,West,270,6.0,6.0,91,0.00,,,0.00,TxWx,2013-02-15 15:09:00,
2013-02-15 10:14:00,32.0,28.0,29.66,SW,225,6.0,8.0,90,0.00,,,0.00,TxWx,2013-02-15 15:14:00,
2013-02-15 10:20:00,32.0,29.0,29.66,WSW,247,2.0,4.0,91,0.00,,,0.00,TxWx,2013-02-15 15:20:00,
2013-02-15 10:25:00,31.0,28.0,29.66,NW,315,5.0,6.0,91,0.00,,,0.00,TxWx,2013-02-15 15:25:00,
2013-02-15 10:30:00,31.0,28.0,29.66,West,270,9.0,10.0,91,0.00,,,0.00,TxWx,2013-02-15 15:30:00,
2013-02-15 10:35:00,31.0,27.0,29.66,SW,225,8.0,9.0,90,0.00,,,0.00,TxWx,2013-02-15 15:35:00,
2013-02-15 10:40:00,32.0,28.0,29.66,West,270,11.0,14.0,88,0.00,,,0.00,TxWx,2013-02-15 15:40:00,
2013-02-15 10:45:00,32.0,27.0,29.66,West,270,7.0,7.0,87,0.00,,,0.00,TxWx,2013-02-15 15:45:00,
2013-02-15 10:50:00,32.0,27.0,29.66,SW,225,12.0,13.0,85,0.00,,,0.00,TxWx,2013-02-15 15:50:00,
2013-02-15 10:55:00,32.0,26.0,29.66,WSW,247,3.0,7.0,82,0.00,,,0.00,TxWx,2013-02-15 15:55:00,
2013-02-15 11:00:00,32.0,26.0,29.67,WSW,247,8.0,10.0,82,0.00,,,0.00,TxWx,2013-02-15 16:00:00,
2013-02-15 11:05:00,32.0,26.0,29.67,SW,225,3.0,4.0,82,0.00,,,0.00,TxWx,2013-02-15 16:05:00,
2013-02-15 11:10:00,32.0,26.0,29.67,SSW,202,6.0,8.0,81,0.00,,,0.00,TxWx,2013-02-15 16:10:00,
2013-02-15 11:16:00,32.0,26.0,29.67,WNW,292,8.0,11.0,81,0.00,,,0.00,TxWx,2013-02-15 16:16:00,
2013-02-15 11:21:00,32.0,26.0,29.67,WSW,247,7.0,10.0,81,0.00,,,0.00,TxWx,2013-02-15 16:21:00,
2013-02-15 11:26:00,32.0,25.0,29.67,West,270,11.0,14.0,80,0.00,,,0.00,TxWx,2013-02-15 16:26:00,
2013-02-15 11:31:00,32.0,25.0,29.67,WNW,292,3.0,5.0,78,0.00,,,0.00,TxWx,2013-02-15 16:31:00,
2013-02-15 11:36:00,32.0,25.0,29.67,West,270,10.0,11.0,77,0.00,,,0.00,TxWx,2013-02-15 16:36:00,
2013-02-15 11:41:00,32.0,24.0,29.67,SSW,202,3.0,5.0,76,0.00,,,0.00,TxWx,2013-02-15 16:41:00,
2013-02-15 11:46:00,32.0,24.0,29.67,NW,315,5.0,5.0,76,0.00,,,0.00,TxWx,2013-02-15 16:46:00,
2013-02-15 11:51:00,32.0,24.0,29.67,SSW,202,10.0,10.0,76,0.00,,,0.00,TxWx,2013-02-15 16:51:00,
2013-02-15 11:56:00,32.0,24.0,29.67,WSW,247,8.0,8.0,76,0.00,,,0.00,TxWx,2013-02-15 16:56:00,
2013-02-15 12:01:00,32.0,24.0,29.67,West,270,9.0,9.0,75,0.00,,,0.00,TxWx,2013-02-15 17:01:00,
2013-02-15 12:07:00,32.0,23.0,29.67,WSW,247,5.0,10.0,74,0.00,,,0.00,TxWx,2013-02-15 17:07:00,
2013-02-15 12:12:00,32.0,23.0,29.67,WSW,247,5.0,6.0,73,0.00,,,0.00,TxWx,2013-02-15 17:12:00,
2013-02-15 12:17:00,32.0,23.0,29.66,WSW,247,7.0,9.0,73,0.00,,,0.00,TxWx,2013-02-15 17:17:00,
2013-02-15 12:22:00,32.0,23.0,29.66,SSW,202,8.0,10.0,72,0.00,,,0.00,TxWx,2013-02-15 17:22:00,
2013-02-15 12:27:00,33.0,23.0,29.66,WSW,247,4.0,5.0,71,0.00,,,0.00,TxWx,2013-02-15 17:27:00,
2013-02-15 12:32:00,34.0,24.0,29.66,NNW,337,7.0,11.0,69,0.00,,,0.00,TxWx,2013-02-15 17:32:00,
2013-02-15 12:37:00,33.0,23.0,29.66,SSW,202,5.0,8.0,68,0.00,,,0.00,TxWx,2013-02-15 17:37:00,
2013-02-15 12:42:00,33.0,23.0,29.67,West,270,8.0,10.0,68,0.00,,,0.00,TxWx,2013-02-15 17:42:00,
2013-02-15 12:47:00,33.0,23.0,29.66,WSW,247,5.0,5.0,68,0.00,,,0.00,TxWx,2013-02-15 17:47:00,
2013-02-15 12:52:00,32.0,22.0,29.67,WSW,247,8.0,8.0,68,0.00,,,0.00,TxWx,2013-02-15 17:52:00,
2013-02-15 12:58:00,32.0,22.0,29.66,South,180,6.0,8.0,68,0.00,,,0.00,TxWx,2013-02-15 17:58:00,
2013-02-15 13:03:00,32.0,22.0,29.66,SW,225,18.0,18.0,69,0.00,,,0.00,TxWx,2013-02-15 18:03:00,
2013-02-15 13:08:00,32.0,22.0,29.66,SW,225,9.0,12.0,69,0.00,,,0.00,TxWx,2013-02-15 18:08:00,
2013-02-15 13:13:00,32.0,22.0,29.66,North,0,8.0,14.0,69,0.00,,,0.00,TxWx,2013-02-15 18:13:00,
2013-02-15 13:18:00,32.0,22.0,29.67,WSW,247,3.0,6.0,69,0.00,,,0.00,TxWx,2013-02-15 18:18:00,
2013-02-15 13:23:00,32.0,22.0,29.67,West,270,12.0,21.0,69,0.00,,,0.00,TxWx,2013-02-15 18:23:00,
2013-02-15 13:28:00,32.0,22.0,29.67,West,270,10.0,13.0,70,0.00,,,0.00,TxWx,2013-02-15 18:28:00,
2013-02-15 13:33:00,32.0,22.0,29.66,WSW,247,14.0,17.0,70,0.00,,,0.00,TxWx,2013-02-15 18:33:00,
2013-02-15 13:38:00,32.0,22.0,29.67,West,270,6.0,6.0,70,0.00,,,0.00,TxWx,2013-02-15 18:38:00,
2013-02-15 13:43:00,32.0,22.0,29.67,WSW,247,6.0,6.0,69,0.00,,,0.00,TxWx,2013-02-15 18:43:00,
2013-02-15 13:48:00,32.0,22.0,29.66,South,180,3.0,10.0,69,0.00,,,0.00,TxWx,2013-02-15 18:48:00,
2013-02-15 13:54:00,32.0,22.0,29.67,SW,225,10.0,11.0,69,0.00,,,0.00,TxWx,2013-02-15 18:54:00,
2013-02-15 13:59:00,32.0,22.0,29.67,WNW,292,7.0,14.0,69,0.00,,,0.00,TxWx,2013-02-15 18:59:00,
2013-02-15 14:00:00,23.0,17.0,29.76,WNW,292,5.0,7.0,81,0.00,,,0.00,TxWx,2013-02-15 19:00:00,
2013-02-15 14:01:00,23.0,17.0,29.76,WNW,292,5.0,6.0,81,0.00,,,0.00,TxWx,2013-02-15 19:01:00,
2013-02-15 14:02:00,23.0,17.0,29.76,WNW,292,5.0,5.0,81,0.00,,,0.00,TxWx,2013-02-15 19:02:00,
2013-02-15 14:04:00,32.0,22.0,29.67,SW,225,3.0,4.0,69,0.00,,,0.00,TxWx,2013-02-15 19:04:00,
2013-02-15 14:09:00,33.0,23.0,29.67,West,270,3.0,3.0,69,0.00,,,0.00,TxWx,2013-02-15 19:09:00,
2013-02-15 14:14:00,33.0,23.0,29.67,South,180,2.0,5.0,69,0.00,,,0.00,TxWx,2013-02-15 19:14:00,
2013-02-15 14:19:00,33.0,23.0,29.67,WSW,247,5.0,6.0,69,0.00,,,0.00,TxWx,2013-02-15 19:19:00,
2013-02-15 14:25:00,32.0,22.0,29.68,WSW,247,8.0,10.0,70,0.00,,,0.00,TxWx,2013-02-15 19:25:00,
2013-02-15 14:31:00,32.0,22.0,29.68,WSW,247,10.0,12.0,69,0.00,,,0.00,TxWx,2013-02-15 19:31:00,
2013-02-15 14:39:00,32.0,22.0,29.68,WSW,247,4.0,8.0,70,0.00,,,0.00,TxWx,2013-02-15 19:39:00,
2013-02-15 14:44:00,32.0,22.0,29.68,West,270,8.0,8.0,70,0.00,,,0.00,TxWx,2013-02-15 19:44:00,
2013-02-15 14:49:00,32.0,22.0,29.68,West,270,5.0,6.0,70,0.00,,,0.00,TxWx,2013-02-15 19:49:00,
2013-02-15 14:55:00,32.0,22.0,29.68,WSW,247,5.0,6.0,70,0.00,,,0.00,TxWx,2013-02-15 19:55:00,
2013-02-15 15:00:00,32.0,22.0,29.68,SSW,202,13.0,13.0,70,0.00,,,0.00,TxWx,2013-02-15 20:00:00,
2013-02-15 15:06:00,32.0,22.0,29.68,NNE,22,4.0,6.0,70,0.00,,,0.00,TxWx,2013-02-15 20:06:00,
2013-02-15 15:11:00,32.0,22.0,29.69,SSW,202,4.0,7.0,70,0.00,,,0.00,TxWx,2013-02-15 20:11:00,
2013-02-15 15:16:00,32.0,22.0,29.69,WSW,247,8.0,8.0,70,0.00,,,0.00,TxWx,2013-02-15 20:16:00,
2013-02-15 15:21:00,32.0,22.0,29.69,WSW,247,8.0,8.0,70,0.00,,,0.00,TxWx,2013-02-15 20:21:00,
2013-02-15 15:27:00,32.0,22.0,29.69,WSW,247,10.0,11.0,69,0.00,,,0.00,TxWx,2013-02-15 20:27:00,
2013-02-15 15:32:00,32.0,22.0,29.69,WSW,247,3.0,5.0,69,0.00,,,0.00,TxWx,2013-02-15 20:32:00,
2013-02-15 15:37:00,32.0,22.0,29.69,West,270,6.0,6.0,69,0.00,,,0.00,TxWx,2013-02-15 20:37:00,
2013-02-15 15:42:00,32.0,22.0,29.69,WNW,292,6.0,6.0,69,0.00,,,0.00,TxWx,2013-02-15 20:42:00,
2013-02-15 15:47:00,32.0,22.0,29.69,WSW,247,5.0,6.0,69,0.00,,,0.00,TxWx,2013-02-15 20:47:00,
2013-02-15 15:52:00,32.0,22.0,29.69,WSW,247,5.0,10.0,69,0.00,,,0.00,TxWx,2013-02-15 20:52:00,
2013-02-15 15:57:00,32.0,22.0,29.69,WSW,247,3.0,5.0,69,0.00,,,0.00,TxWx,2013-02-15 20:57:00,
2013-02-15 16:03:00,32.0,22.0,29.69,SW,225,3.0,6.0,69,0.00,,,0.00,TxWx,2013-02-15 21:03:00,
2013-02-15 16:08:00,31.0,21.0,29.69,West,270,6.0,10.0,70,0.00,,,0.00,TxWx,2013-02-15 21:08:00,
2013-02-15 16:13:00,31.0,21.0,29.69,SW,225,4.0,8.0,70,0.00,,,0.00,TxWx,2013-02-15 21:13:00,
2013-02-15 16:18:00,31.0,22.0,29.69,WNW,292,6.0,8.0,71,0.00,,,0.00,TxWx,2013-02-15 21:18:00,
2013-02-15 16:24:00,31.0,22.0,29.70,WSW,247,8.0,9.0,72,0.00,,,0.00,TxWx,2013-02-15 21:24:00,
2013-02-15 16:29:00,31.0,22.0,29.70,West,270,5.0,6.0,72,0.00,,,0.00,TxWx,2013-02-15 21:29:00,
2013-02-15 16:34:00,31.0,23.0,29.71,West,270,6.0,7.0,74,0.00,,,0.00,TxWx,2013-02-15 21:34:00,
2013-02-15 16:41:00,30.0,22.0,29.71,West,270,9.0,9.0,76,0.00,,,0.00,TxWx,2013-02-15 21:41:00,
2013-02-15 16:46:00,30.0,23.0,29.71,WNW,292,3.0,4.0,78,0.00,,,0.00,TxWx,2013-02-15 21:46:00,
2013-02-15 16:51:00,30.0,23.0,29.71,West,270,3.0,5.0,80,0.00,,,0.00,TxWx,2013-02-15 21:51:00,
2013-02-15 16:56:00,30.0,24.0,29.71,West,270,3.0,3.0,81,0.00,,,0.00,TxWx,2013-02-15 21:56:00,
2013-02-15 17:01:00,30.0,24.0,29.72,WSW,247,3.0,3.0,81,0.00,,,0.00,TxWx,2013-02-15 22:01:00,
2013-02-15 17:06:00,30.0,24.0,29.72,West,270,6.0,6.0,82,0.00,,,0.00,TxWx,2013-02-15 22:06:00,
2013-02-15 17:11:00,29.0,23.0,29.72,SW,225,3.0,4.0,82,0.00,,,0.00,TxWx,2013-02-15 22:11:00,
2013-02-15 17:17:00,29.0,23.0,29.72,SW,225,1.0,2.0,83,0.00,,,0.00,TxWx,2013-02-15 22:17:00,
2013-02-15 17:22:00,29.0,23.0,29.73,West,270,5.0,5.0,83,0.00,,,0.00,TxWx,2013-02-15 22:22:00,
2013-02-15 17:27:00,29.0,23.0,29.73,SSW,202,1.0,3.0,83,0.00,,,0.00,TxWx,2013-02-15 22:27:00,
2013-02-15 17:32:00,29.0,23.0,29.73,WSW,247,3.0,5.0,83,0.00,,,0.00,TxWx,2013-02-15 22:32:00,
2013-02-15 17:37:00,29.0,23.0,29.73,West,270,5.0,5.0,82,0.00,,,0.00,TxWx,2013-02-15 22:37:00,
2013-02-15 17:42:00,30.0,24.0,29.73,SSW,202,7.0,9.0,81,0.00,,,0.00,TxWx,2013-02-15 22:42:00,
2013-02-15 17:47:00,29.0,23.0,29.73,West,270,3.0,4.0,81,0.00,,,0.00,TxWx,2013-02-15 22:47:00,
2013-02-15 17:52:00,29.0,23.0,29.73,West,270,3.0,4.0,82,0.00,,,0.00,TxWx,2013-02-15 22:52:00,
2013-02-15 17:57:00,29.0,23.0,29.73,West,270,5.0,7.0,83,0.00,,,0.00,TxWx,2013-02-15 22:57:00,
2013-02-15 18:05:00,29.0,24.0,29.73,West,270,5.0,5.0,84,0.00,,,0.00,TxWx,2013-02-15 23:05:00,
2013-02-15 18:10:00,29.0,24.0,29.74,WNW,292,4.0,5.0,84,0.00,,,0.00,TxWx,2013-02-15 23:10:00,
2013-02-15 18:15:00,29.0,24.0,29.74,West,270,6.0,7.0,84,0.00,,,0.00,TxWx,2013-02-15 23:15:00,
2013-02-15 18:20:00,29.0,23.0,29.74,West,270,4.0,5.0,83,0.00,,,0.00,TxWx,2013-02-15 23:20:00,
2013-02-15 18:26:00,29.0,23.0,29.74,SW,225,6.0,6.0,83,0.00,,,0.00,TxWx,2013-02-15 23:26:00,
2013-02-15 18:31:00,29.0,23.0,29.74,West,270,6.0,6.0,82,0.00,,,0.00,TxWx,2013-02-15 23:31:00,
2013-02-15 18:36:00,29.0,23.0,29.73,West,270,8.0,8.0,80,0.00,,,0.00,TxWx,2013-02-15 23:36:00,
2013-02-15 18:41:00,29.0,22.0,29.74,SSW,202,2.0,4.0,79,0.00,,,0.00,TxWx,2013-02-15 23:41:00,
2013-02-15 18:46:00,28.0,21.0,29.74,West,270,6.0,6.0,78,0.00,,,0.00,TxWx,2013-02-15 23:46:00,
2013-02-15 18:51:00,28.0,21.0,29.74,WSW,247,6.0,6.0,78,0.00,,,0.00,TxWx,2013-02-15 23:51:00,
2013-02-15 18:56:00,28.0,21.0,29.73,WSW,247,5.0,6.0,78,0.00,,,0.00,TxWx,2013-02-15 23:56:00,
2013-02-15 19:01:00,28.0,21.0,29.73,SW,225,5.0,5.0,77,0.00,,,0.00,TxWx,2013-02-16 00:01:00,
2013-02-15 19:06:00,28.0,21.0,29.73,West,270,5.0,8.0,77,0.00,,,0.00,TxWx,2013-02-16 00:06:00,
2013-02-15 19:11:00,28.0,21.0,29.73,West,270,5.0,9.0,77,0.00,,,0.00,TxWx,2013-02-16 00:11:00,
2013-02-15 19:17:00,28.0,20.0,29.73,West,270,7.0,8.0,76,0.00,,,0.00,TxWx,2013-02-16 00:17:00,
2013-02-15 19:22:00,28.0,20.0,29.74,West,270,6.0,7.0,76,0.00,,,0.00,TxWx,2013-02-16 00:22:00,
2013-02-15 19:27:00,27.0,19.0,29.74,SW,225,5.0,8.0,76,0.00,,,0.00,TxWx,2013-02-16 00:27:00,
2013-02-15 19:32:00,27.0,19.0,29.73,SSE,157,4.0,6.0,76,0.00,,,0.00,TxWx,2013-02-16 00:32:00,
2013-02-15 19:37:00,27.0,19.0,29.73,NNW,337,7.0,9.0,76,0.00,,,0.00,TxWx,2013-02-16 00:37:00,
2013-02-15 19:42:00,27.0,19.0,29.74,West,270,7.0,8.0,76,0.00,,,0.00,TxWx,2013-02-16 00:42:00,
2013-02-15 19:47:00,27.0,19.0,29.74,WSW,247,3.0,5.0,76,0.00,,,0.00,TxWx,2013-02-16 00:47:00,
2013-02-15 19:52:00,27.0,19.0,29.74,West,270,3.0,5.0,76,0.00,,,0.00,TxWx,2013-02-16 00:52:00,
2013-02-15 19:57:00,27.0,19.0,29.74,West,270,11.0,13.0,76,0.00,,,0.00,TxWx,2013-02-16 00:57:00,
2013-02-15 20:02:00,27.0,19.0,29.74,NW,315,12.0,12.0,76,0.00,,,0.00,TxWx,2013-02-16 01:02:00,
2013-02-15 20:08:00,27.0,19.0,29.74,WSW,247,7.0,10.0,76,0.00,,,0.00,TxWx,2013-02-16 01:08:00,
2013-02-15 20:13:00,27.0,19.0,29.74,SW,225,6.0,8.0,76,0.00,,,0.00,TxWx,2013-02-16 01:13:00,
2013-02-15 20:18:00,27.0,19.0,29.74,West,270,10.0,11.0,76,0.00,,,0.00,TxWx,2013-02-16 01:18:00,
2013-02-15 20:23:00,26.0,19.0,29.74,SW,225,5.0,6.0,77,0.00,,,0.00,TxWx,2013-02-16 01:23:00,
2013-02-15 20:28:00,26.0,19.0,29.74,WSW,247,7.0,7.0,77,0.00,,,0.00,TxWx,2013-02-16 01:28:00,
2013-02-15 20:33:00,26.0,19.0,29.74,West,270,6.0,7.0,78,0.00,,,0.00,TxWx,2013-02-16 01:33:00,
2013-02-15 20:38:00,26.0,19.0,29.74,WNW,292,4.0,8.0,79,0.00,,,0.00,TxWx,2013-02-16 01:38:00,
2013-02-15 20:43:00,26.0,19.0,29.74,West,270,5.0,5.0,79,0.00,,,0.00,TxWx,2013-02-16 01:43:00,
2013-02-15 20:48:00,26.0,20.0,29.74,West,270,6.0,6.0,80,0.00,,,0.00,TxWx,2013-02-16 01:48:00,
2013-02-15 20:54:00,26.0,20.0,29.74,WSW,247,8.0,8.0,80,0.00,,,0.00,TxWx,2013-02-16 01:54:00,
2013-02-15 20:59:00,25.0,19.0,29.74,West,270,6.0,6.0,80,0.00,,,0.00,TxWx,2013-02-16 01:59:00,
2013-02-15 21:04:00,25.0,19.0,29.74,WNW,292,6.0,7.0,80,0.00,,,0.00,TxWx,2013-02-16 02:04:00,
2013-02-15 21:09:00,25.0,19.0,29.74,WNW,292,7.0,9.0,80,0.00,,,0.00,TxWx,2013-02-16 02:09:00,
2013-02-15 21:14:00,25.0,19.0,29.74,SW,225,8.0,9.0,80,0.00,,,0.00,TxWx,2013-02-16 02:14:00,
2013-02-15 21:19:00,25.0,19.0,29.74,SW,225,6.0,8.0,80,0.00,,,0.00,TxWx,2013-02-16 02:19:00,
2013-02-15 21:24:00,25.0,19.0,29.75,WSW,247,5.0,9.0,80,0.00,,,0.00,TxWx,2013-02-16 02:24:00,
2013-02-15 21:29:00,25.0,19.0,29.74,SW,225,5.0,5.0,80,0.00,,,0.00,TxWx,2013-02-16 02:29:00,
2013-02-15 21:34:00,25.0,19.0,29.74,West,270,6.0,6.0,80,0.00,,,0.00,TxWx,2013-02-16 02:34:00,
2013-02-15 21:39:00,25.0,19.0,29.74,West,270,7.0,12.0,80,0.00,,,0.00,TxWx,2013-02-16 02:39:00,
2013-02-15 21:45:00,25.0,19.0,29.74,WNW,292,8.0,8.0,80,0.00,,,0.00,TxWx,2013-02-16 02:45:00,
2013-02-15 21:50:00,25.0,18.0,29.74,WSW,247,5.0,8.0,79,0.00,,,0.00,TxWx,2013-02-16 02:50:00,
2013-02-15 21:55:00,24.0,17.0,29.74,WSW,247,8.0,11.0,79,0.00,,,0.00,TxWx,2013-02-16 02:55:00,
2013-02-15 22:00:00,24.0,17.0,29.74,WNW,292,6.0,8.0,79,0.00,,,0.00,TxWx,2013-02-16 03:00:00,
2013-02-15 22:02:00,16.0,12.0,29.76,WNW,292,3.0,4.0,89,0.00,,,0.00,TxWx,2013-02-16 03:02:00,
2013-02-15 22:03:00,16.0,12.0,29.76,SW,225,1.0,1.0,88,0.00,,,0.00,TxWx,2013-02-16 03:03:00,
2013-02-15 22:04:00,16.0,12.0,29.76,SSW,202,0.0,1.0,88,0.00,,,0.00,TxWx,2013-02-16 03:04:00,
2013-02-15 22:05:00,24.0,18.0,29.75,West,270,9.0,9.0,80,0.00,,,0.00,TxWx,2013-02-16 03:05:00,
2013-02-15 22:10:00,24.0,17.0,29.75,West,270,10.0,11.0,79,0.00,,,0.00,TxWx,2013-02-16 03:10:00,
2013-02-15 22:15:00,24.0,17.0,29.75,WNW,292,6.0,8.0,79,0.00,,,0.00,TxWx,2013-02-16 03:15:00,
2013-02-15 22:20:00,24.0,18.0,29.75,West,270,8.0,8.0,80,0.00,,,0.00,TxWx,2013-02-16 03:20:00,
2013-02-15 22:25:00,24.0,18.0,29.75,WSW,247,2.0,6.0,80,0.00,,,0.00,TxWx,2013-02-16 03:25:00,
2013-02-15 22:30:00,24.0,18.0,29.76,SW,225,3.0,4.0,81,0.00,,,0.00,TxWx,2013-02-16 03:30:00,
2013-02-15 22:36:00,24.0,18.0,29.76,NW,315,8.0,8.0,81,0.00,,,0.00,TxWx,2013-02-16 03:36:00,
2013-02-15 22:37:00,16.0,10.0,29.77,NW,315,6.0,6.0,82,0.00,,,0.00,TxWx,2013-02-16 03:37:00,
2013-02-15 22:38:00,16.0,10.0,29.77,NNE,22,1.0,1.0,82,0.00,,,0.00,TxWx,2013-02-16 03:38:00,
2013-02-15 22:39:00,16.0,10.0,29.77,NW,315,3.0,3.0,82,0.00,,,0.00,TxWx,2013-02-16 03:39:00,
2013-02-15 22:40:00,16.0,10.0,29.77,NW,315,1.0,3.0,82,0.00,,,0.00,TxWx,2013-02-16 03:40:00,
2013-02-15 22:41:00,24.0,18.0,29.76,West,270,8.0,10.0,81,0.00,,,0.00,TxWx,2013-02-16 03:41:00,
2013-02-15 22:46:00,24.0,18.0,29.76,WNW,292,5.0,7.0,81,0.00,,,0.00,TxWx,2013-02-16 03:46:00,
2013-02-15 22:51:00,24.0,18.0,29.75,WSW,247,3.0,5.0,81,0.00,,,0.00,TxWx,2013-02-16 03:51:00,
2013-02-15 22:56:00,24.0,18.0,29.76,WSW,247,8.0,8.0,81,0.00,,,0.00,TxWx,2013-02-16 03:56:00,
2013-02-15 23:01:00,24.0,18.0,29.75,West,270,6.0,6.0,80,0.00,,,0.00,TxWx,2013-02-16 04:01:00,
2013-02-15 23:06:00,24.0,18.0,29.75,WSW,247,3.0,5.0,80,0.00,,,0.00,TxWx,2013-02-16 04:06:00,
2013-02-15 23:11:00,24.0,18.0,29.75,West,270,3.0,5.0,80,0.00,,,0.00,TxWx,2013-02-16 04:11:00,
2013-02-15 23:16:00,24.0,18.0,29.75,West,270,4.0,5.0,80,0.00,,,0.00,TxWx,2013-02-16 04:16:00,
2013-02-15 23:21:00,24.0,18.0,29.74,SSW,202,3.0,5.0,80,0.00,,,0.00,TxWx,2013-02-16 04:21:00,
2013-02-15 23:27:00,24.0,18.0,29.75,West,270,3.0,5.0,80,0.00,,,0.00,TxWx,2013-02-16 04:27:00,
2013-02-15 23:32:00,24.0,18.0,29.75,South,180,3.0,3.0,80,0.00,,,0.00,TxWx,2013-02-16 04:32:00,
2013-02-15 23:37:00,23.0,17.0,29.75,West,270,3.0,3.0,81,0.00,,,0.00,TxWx,2013-02-16 04:37:00,
2013-02-15 23:42:00,23.0,17.0,29.75,WNW,292,6.0,6.0,81,0.00,,,0.00,TxWx,2013-02-16 04:42:00,
2013-02-15 23:47:00,23.0,17.0,29.75,SW,225,2.0,3.0,81,0.00,,,0.00,TxWx,2013-02-16 04:47:00,
2013-02-15 23:52:00,23.0,17.0,29.75,WSW,247,5.0,8.0,81,0.00,,,0.00,TxWx,2013-02-16 04:52:00,
2013-02-15 23:57:00,23.0,17.0,29.75,WNW,292,5.0,5.0,81,0.00,,,0.00,TxWx,2013-02-16 04:57:00,